Voltar ao catálogo

KUIPER-00013

AtivoComunicaçõesLEO
NORAD 63729·PAYLOAD·🇺🇸 United States

Lançado Apr 28, 2025 de Cape Canaveral Space Force Station

Loading…

Próximas Passagens (próximas 24 horas)

TLE

AtualizadoSource: CelesTrak SupGP

Época: Sep 14, 2026, 20:10 UTC

1 63729C 25088F   26257.84033565  .00005472  00000+0  71646-3 0  2577
2 63729  51.9024 351.6979 0000490  94.0375 131.7445 14.79915194    17

Acompanhe KUIPER-00013 em tempo real com AllMySat

Download on the App Store